Date and Time,30m Wind Direction,30m Wind Speed,30m Wind Vert,30m Quality,40m Wind Direction,40m Wind Speed,40m Wind Vert,40m Quality,50m Wind Direction,50m Wind Speed,50m Wind Vert,50m Quality,60m Wind Direction,60m Wind Speed,60m Wind Vert,60m Quality,80m Wind Direction,80m Wind Speed,80m Wind Vert,80m Quality,100m Wind Direction,100m Wind Speed,100m Wind Vert,100m Quality,120m Wind Direction,120m Wind Speed,120m Wind Vert,120m Quality,140m Wind Direction,140m Wind Speed,140m Wind Vert,140m Quality,160m Wind Direction,160m Wind Speed,160m Wind Vert,160m Quality,180m Wind Direction,180m Wind Speed,180m Wind Vert,180m Quality,200m Wind Direction,200m Wind Speed,200m Wind Vert,200m Quality,30m Wind Turbulence,40m Wind Turbulence,50m Wind Turbulence,60m Wind Turbulence,80m Wind Turbulence,100m Wind Turbulence,120m Wind Turbulence,140m Wind Turbulence,160m Wind Turbulence,180m Wind Turbulence,200m Wind Turbulence
9/1/2018 12:00 AM,86.90,9.79,0.19,99,85.80,9.43,0.00,99,84.90,10.30,0.07,98,88.30,10.42,0.11,97,86.60,10.77,0.12,95,91.50,10.67,0.12,90,91.10,9.72,-0.06,88,124.10,12.40,-0.40,62,88.10,14.74,0.08,50,128.60,11.28,-1.38,14,256.40,8.31,-1.16,9,0.07,0.13,0.11,0.11,0.15,0.21,0.23,0.31,0.26,0.95,3.53
9/1/2018 12:10 AM,84.10,10.78,0.11,99,85.70,11.44,0.17,98,88.90,11.05,0.13,97,87.70,11.53,0.19,97,87.50,12.22,0.19,93,83.40,9.99,-0.02,74,94.90,11.86,0.16,48,87.70,10.74,0.44,24,107.20,8.54,-0.01,6,172.00,18.74,-0.18,1,227.10,42.33,-0.43,1,0.06,0.06,0.06,0.08,0.07,0.25,0.11,0.20,1.20,0.25,0.25
9/1/2018 12:20 AM,87.50,10.15,0.13,99,89.00,10.94,0.17,99,87.10,11.03,0.12,98,89.70,10.83,0.16,97,88.30,11.41,0.28,95,90.40,11.11,0.30,92,93.10,11.80,0.53,78,88.10,9.77,0.20,46,152.10,12.07,2.79,26,237.80,10.57,1.01,10,208.10,7.39,1.33,9,0.07,0.05,0.06,0.07,0.12,0.23,0.30,0.69,0.66,1.23,1.66
9/1/2018 12:30 AM,90.00,9.25,0.11,99,89.80,10.23,0.14,98,91.30,10.36,0.17,98,90.80,10.60,0.17,98,93.40,11.00,0.16,92,87.00,10.39,-0.08,89,123.00,11.60,-1.18,67,147.60,12.84,-1.65,50,112.20,19.47,-2.24,12,218.40,5.68,-5.48,13,125.10,10.10,-5.73,13,0.08,0.06,0.06,0.08,0.14,0.26,0.29,0.74,0.46,0.52,1.31
9/1/2018 12:40 AM,87.40,10.51,0.13,99,86.60,10.87,0.14,99,87.30,11.08,0.13,97,86.90,11.05,0.17,96,87.80,11.14,0.15,93,94.50,10.62,-0.17,90,88.60,11.51,0.18,73,108.20,12.43,0.30,44,182.90,14.27,-2.49,23,157.30,28.41,-2.26,16,147.90,18.48,-5.20,12,0.06,0.06,0.07,0.08,0.13,0.26,0.25,0.35,0.72,0.14,0.20
9/1/2018 12:50 AM,93.50,9.00,0.23,99,90.90,9.48,0.17,98,89.10,10.05,0.20,98,89.70,9.89,0.24,97,88.30,10.63,0.19,94,87.60,9.63,0.19,90,93.90,10.96,0.43,72,109.70,9.92,0.20,41,68.10,8.92,1.08,19,119.40,10.84,0.09,13,164.80,23.84,-0.89,0,0.08,0.08,0.07,0.09,0.11,0.15,0.15,0.26,0.26,0.29,0.24
9/1/2018 1:00 AM,90.90,8.99,0.13,98,92.00,9.53,0.15,98,92.30,9.47,0.19,98,92.40,9.36,0.19,95,94.70,10.47,0.26,93,94.00,10.00,0.32,81,89.80,10.27,0.35,66,101.40,12.29,0.30,56,121.40,16.47,0.14,25,135.90,11.48,-0.66,27,147.50,7.97,-1.41,18,0.07,0.09,0.08,0.13,0.11,0.21,0.24,0.23,0.40,0.60,0.66
9/1/2018 1:10 AM,94.00,9.28,0.06,98,92.50,9.87,0.07,99,90.70,9.80,0.11,98,91.30,10.03,0.15,97,96.30,10.55,0.13,93,96.10,10.92,0.10,91,89.40,9.93,0.05,82,112.40,9.99,-0.45,58,148.10,13.95,-1.21,36,163.40,19.87,-2.16,23,86.80,10.60,-4.41,7,0.06,0.05,0.09,0.12,0.15,0.16,0.23,0.38,0.36,0.29,0.44
9/1/2018 1:20 AM,91.10,9.54,0.01,99,92.50,9.93,0.00,98,92.70,9.75,0.05,97,94.70,10.16,0.04,95,94.20,10.24,-0.16,90,88.00,8.90,-0.36,41,119.70,13.39,-0.29,30,87.20,13.89,0.16,21,123.40,14.95,-0.86,15,113.70,15.35,-1.03,7,168.30,1.57,-2.47,6,0.07,0.06,0.07,0.15,0.20,0.31,0.25,0.19,0.51,0.22,0.66
9/1/2018 1:30 AM,91.10,8.64,0.14,99,90.40,8.76,0.17,99,89.90,9.31,0.18,97,91.80,9.48,0.23,98,90.30,9.75,0.25,95,90.20,9.77,0.29,93,89.00,9.88,0.31,90,86.00,10.63,0.46,67,86.80,10.55,0.28,64,86.90,10.18,0.32,33,105.80,11.25,0.53,22,0.08,0.08,0.07,0.11,0.07,0.11,0.17,0.28,0.22,0.27,0.32
9/1/2018 1:40 AM,89.70,8.32,0.21,98,87.20,8.57,0.20,98,88.90,9.37,0.20,98,89.10,9.27,0.19,96,88.50,9.67,0.16,93,86.00,9.48,0.17,91,91.60,9.89,0.20,84,102.00,10.59,0.03,63,109.40,7.98,-0.34,42,143.60,13.61,-1.10,18,159.40,22.93,-2.21,15,0.08,0.09,0.08,0.10,0.13,0.21,0.18,0.23,0.34,0.56,0.20
9/1/2018 1:50 AM,83.80,8.28,0.18,98,84.70,8.47,0.12,98,80.70,8.93,0.17,97,82.90,9.50,0.14,96,82.40,9.85,0.15,94,88.70,9.61,0.16,91,98.30,9.26,-0.01,65,73.00,7.24,-0.25,41,65.40,9.88,-0.01,26,123.80,9.22,-1.82,8,132.40,7.72,-1.04,7,0.06,0.07,0.06,0.11,0.10,0.17,0.40,0.45,0.41,0.74,0.76
9/1/2018 2:00 AM,85.30,8.55,0.13,98,81.70,9.14,0.17,99,83.60,9.16,0.19,98,83.40,9.47,0.20,97,82.80,9.67,0.24,95,82.40,10.02,0.23,91,73.40,10.04,0.32,74,83.40,8.86,0.33,55,68.40,11.33,0.34,15,190.40,7.59,-3.51,18,118.50,21.02,0.39,6,0.07,0.06,0.06,0.10,0.10,0.15,0.27,0.24,0.30,0.50,0.29
9/1/2018 2:10 AM,86.50,8.54,0.14,97,82.50,9.10,0.18,98,84.40,9.38,0.14,97,82.90,9.18,0.21,97,84.50,10.02,0.21,94,81.70,10.15,0.29,91,88.00,9.64,0.04,89,95.90,9.77,0.08,55,130.70,10.54,-1.09,38,154.40,25.39,-3.54,7,114.40,6.03,-0.33,5,0.07,0.07,0.07,0.20,0.07,0.16,0.27,0.30,0.23,0.23,0.44
9/1/2018 2:20 AM,86.30,8.39,0.21,98,85.30,8.69,0.23,99,89.30,9.01,0.21,98,90.10,9.33,0.22,97,86.00,9.21,0.12,95,88.10,9.29,-0.14,91,91.70,10.53,-0.43,89,117.20,12.23,-0.49,72,102.20,9.32,-1.56,49,126.70,12.90,-2.09,37,130.80,11.75,-2.45,32,0.07,0.08,0.11,0.18,0.21,0.21,0.27,0.27,0.46,0.38,0.29
9/1/2018 2:30 AM,85.70,9.73,0.08,99,85.30,9.53,0.06,99,86.80,9.84,0.07,98,86.00,9.95,0.17,96,80.20,11.21,0.08,93,77.80,11.16,0.24,89,98.70,8.81,-0.23,69,126.00,9.50,-0.54,41,113.50,12.25,-0.19,31,322.50,10.29,-0.55,7,288.20,18.84,-2.59,6,0.06,0.06,0.07,0.13,0.10,0.20,0.22,0.80,0.54,1.08,0.24
9/1/2018 2:40 AM,87.60,9.91,0.18,99,85.40,10.20,0.15,99,85.50,10.59,0.15,98,85.30,11.02,0.16,96,84.90,11.66,0.14,93,82.60,10.86,-0.05,89,89.90,10.62,-0.19,73,86.90,10.20,-0.26,43,123.80,12.70,-1.02,34,358.90,7.45,-2.51,6,348.50,9.33,-3.48,19,0.06,0.06,0.06,0.12,0.10,0.17,0.32,0.37,0.36,1.33,0.83
9/1/2018 2:50 AM,84.90,9.22,0.31,99,88.00,10.17,0.25,99,87.70,10.27,0.23,98,87.80,10.18,0.22,97,87.80,10.76,0.26,93,86.90,10.68,0.20,91,90.50,10.74,0.21,71,96.40,13.57,-0.10,57,116.00,13.35,-0.37,35,85.60,8.82,-1.36,27,114.60,19.72,-0.51,5,0.07,0.06,0.08,0.08,0.10,0.15,0.23,0.19,0.27,0.68,0.17
9/1/2018 3:00 AM,86.80,8.98,0.19,98,86.00,9.69,0.15,99,84.30,9.57,0.10,98,84.40,9.40,0.07,96,83.50,10.97,0.09,92,86.50,12.11,-0.02,82,75.60,15.65,-0.32,47,73.20,12.63,-0.65,32,109.10,12.45,-1.14,31,250.60,17.14,-3.72,6,181.60,2.04,-6.16,15,0.07,0.06,0.06,0.16,0.10,0.15,0.19,0.49,0.39,0.31,0.98
9/1/2018 3:10 AM,86.10,8.33,0.12,98,87.90,8.95,0.11,98,87.50,9.28,0.14,98,94.70,9.00,0.02,95,85.40,8.32,-0.12,92,89.30,7.50,-0.38,88,74.60,4.17,-0.83,54,155.10,11.53,-2.53,59,171.90,10.59,-2.18,39,162.60,5.36,-6.12,31,355.60,19.36,-5.31,29,0.08,0.06,0.06,0.23,0.27,0.44,0.92,0.58,0.73,2.35,0.38
9/1/2018 3:20 AM,86.00,8.46,0.17,98,84.20,9.10,0.17,98,88.20,9.72,0.13,99,86.60,8.79,-0.04,97,86.20,8.21,-0.17,94,68.40,7.83,-0.28,91,69.20,7.44,-0.59,67,78.60,3.76,-1.42,53,64.50,3.19,-1.94,25,104.20,10.23,-2.18,12,219.70,9.89,-5.91,8,0.07,0.06,0.06,0.20,0.24,0.38,0.46,0.70,0.57,0.41,0.74
9/1/2018 3:30 AM,87.70,8.64,0.18,99,84.50,8.92,0.12,98,87.70,8.82,-0.01,96,89.20,9.35,-0.04,94,87.20,8.71,-0.34,93,61.10,6.73,-1.14,88,119.60,7.41,-2.22,57,112.60,1.40,-2.79,55,10.10,1.59,-4.94,37,311.50,2.56,-5.72,43,219.60,9.69,-4.89,38,0.07,0.07,0.16,0.22,0.26,0.76,0.56,1.05,2.89,1.11,0.59
9/1/2018 3:40 AM,84.70,8.89,0.13,98,87.90,9.10,0.05,98,86.60,8.74,0.03,97,88.50,9.73,0.15,96,82.20,8.52,-0.33,92,89.40,6.72,-0.94,88,122.30,4.52,-1.83,65,122.60,5.69,-3.04,40,7.30,2.84,-4.39,42,11.50,2.54,-3.26,42,213.30,10.49,-4.12,25,0.07,0.10,0.13,0.13,0.25,0.51,1.08,0.55,3.02,0.97,0.67
9/1/2018 3:50 AM,89.70,8.38,0.17,98,84.00,9.20,0.19,98,87.80,9.70,0.18,97,91.20,9.43,0.13,95,92.30,9.63,0.05,93,82.90,8.87,-0.20,90,87.30,9.90,0.09,79,79.60,9.32,-0.24,57,148.90,5.86,-0.34,30,252.90,17.90,-2.61,12,235.10,20.45,0.94,4,0.08,0.07,0.06,0.11,0.13,0.33,0.22,0.48,0.51,0.41,0.30
9/1/2018 4:00 AM,90.40,9.02,0.15,98,90.40,9.48,0.13,99,92.50,9.64,0.21,98,92.30,9.78,0.28,96,88.50,10.12,0.30,93,86.20,9.81,0.39,90,87.30,10.32,0.43,84,139.70,17.89,-0.78,36,129.80,21.97,-0.91,26,132.60,31.25,-1.69,9,37.90,10.06,-1.76,12,0.07,0.05,0.09,0.10,0.14,0.11,0.15,0.19,0.22,0.17,0.53
9/1/2018 4:10 AM,87.60,8.71,0.20,99,90.40,9.45,0.18,98,91.20,9.21,0.12,97,94.00,9.41,0.20,96,92.40,9.73,0.27,92,90.60,10.15,0.38,81,92.20,10.46,0.20,57,127.00,8.36,-0.27,52,121.20,4.06,0.47,20,103.10,8.04,0.02,9,235.30,4.36,0.59,27,0.09,0.07,0.10,0.14,0.14,0.16,0.27,0.35,1.02,0.29,0.54
9/1/2018 4:20 AM,90.00,8.48,0.10,98,86.40,9.24,0.19,98,89.60,9.61,0.17,97,92.60,9.60,0.23,96,86.80,9.59,0.16,93,90.20,10.37,0.08,87,99.20,8.34,-0.48,63,75.60,4.44,-0.90,49,182.00,14.06,-3.29,34,42.40,0.92,-3.14,9,233.30,13.49,-4.01,18,0.07,0.07,0.06,0.14,0.25,0.26,0.38,0.68,0.34,2.57,0.91
9/1/2018 4:30 AM,88.20,8.42,0.16,98,87.30,8.88,0.14,99,87.40,9.23,0.21,98,87.20,9.87,0.25,97,96.00,10.06,0.13,93,94.10,10.50,0.15,90,99.30,9.14,-0.36,88,149.00,13.61,-1.42,50,158.50,11.89,-3.10,46,202.80,9.41,-4.59,34,211.10,2.58,-7.07,25,0.08,0.07,0.07,0.07,0.13,0.19,0.57,0.39,0.35,0.83,3.46
9/1/2018 4:40 AM,88.40,8.99,0.21,98,86.20,8.75,0.14,98,88.30,9.35,0.13,97,90.50,9.44,0.06,93,99.40,9.72,-0.20,91,101.20,11.67,-0.42,87,114.20,8.15,-0.86,55,140.00,12.74,-1.08,32,156.90,8.21,-4.91,30,222.60,8.20,-5.48,36,149.20,9.58,-4.41,13,0.07,0.07,0.07,0.23,0.32,0.33,0.51,0.48,0.64,0.87,0.43
9/1/2018 4:50 AM,85.80,8.06,0.16,98,85.60,8.92,0.10,97,88.00,9.27,0.03,95,83.60,9.13,0.04,91,98.90,11.13,-0.29,88,82.90,6.98,-0.95,67,92.20,7.65,-2.39,41,96.00,2.32,-3.51,29,145.00,10.02,-4.83,22,38.10,6.69,-6.60,15,34.10,11.90,-5.30,7,0.07,0.07,0.19,0.36,0.37,1.04,0.58,0.54,0.33,1.18,0.39
9/1/2018 5:00 AM,91.90,8.37,0.18,97,89.00,8.82,0.22,99,91.50,8.74,0.24,98,90.90,9.43,0.28,96,88.40,9.56,0.40,94,87.50,9.90,0.42,89,86.10,9.58,0.32,70,80.60,11.86,0.42,49,86.30,12.73,0.73,18,87.40,8.85,-0.54,6,178.10,3.77,0.10,3,0.08,0.06,0.07,0.10,0.07,0.11,0.14,0.22,0.18,0.46,1.29
9/1/2018 5:10 AM,92.70,8.61,0.11,98,87.00,9.21,0.17,97,90.20,9.58,0.19,97,90.60,9.58,0.20,94,97.60,11.07,-0.09,91,111.90,10.79,-0.11,79,124.60,12.19,-0.43,43,71.60,12.52,-0.33,35,43.70,10.18,-1.20,38,202.00,7.78,-4.05,25,154.50,16.49,-2.57,13,0.07,0.06,0.06,0.16,0.24,0.24,0.31,0.48,0.60,0.42,0.23
9/1/2018 5:20 AM,93.40,8.40,0.22,98,91.70,8.89,0.28,98,95.60,9.15,0.24,97,96.90,9.51,0.22,95,106.20,6.92,-0.64,88,132.00,7.19,-1.04,74,182.60,11.34,-3.27,44,223.60,17.43,-5.01,38,235.20,19.61,-6.41,41,189.20,11.13,-5.78,36,222.60,14.51,-6.43,29,0.10,0.07,0.13,0.22,0.56,1.42,0.38,0.50,0.22,0.53,0.24
9/1/2018 5:30 AM,96.30,9.04,0.08,98,97.80,9.25,0.10,99,100.90,9.46,0.04,97,101.50,8.58,-0.01,95,115.80,10.48,-0.21,91,102.60,8.69,-0.89,88,89.50,12.63,-1.83,54,128.50,15.45,-3.34,31,216.50,9.78,-4.93,35,334.20,3.17,-5.70,15,175.90,3.58,-6.04,30,0.07,0.06,0.21,0.30,0.32,0.54,0.43,0.39,1.32,0.77,0.83
9/1/2018 5:40 AM,95.90,9.47,0.09,98,98.20,9.13,0.01,98,101.50,9.15,-0.28,97,90.30,7.75,-0.92,95,111.60,12.93,-1.59,93,153.30,9.88,-3.62,89,133.90,11.92,-5.12,72,97.30,8.98,-6.43,48,120.10,7.99,-7.74,40,67.30,2.86,-8.42,48,124.00,4.12,-8.58,35,0.09,0.16,0.31,0.59,0.37,0.55,0.64,0.64,0.72,1.37,0.85
9/1/2018 5:50 AM,92.60,9.53,0.12,98,92.10,9.35,0.04,98,97.70,9.30,0.00,96,105.90,8.90,-0.17,93,118.30,8.02,-0.52,90,116.90,10.98,-1.62,80,133.50,7.84,-3.31,62,180.40,11.00,-4.86,33,208.80,17.23,-5.44,37,217.70,13.63,-5.58,24,173.90,6.77,-7.16,32,0.06,0.13,0.17,0.48,0.56,0.47,1.26,0.48,0.25,0.43,0.33
9/1/2018 6:00 AM,91.00,8.56,0.14,99,97.90,9.11,0.10,97,102.80,7.94,-0.09,95,118.30,9.25,-0.14,93,140.90,6.98,-0.98,90,154.20,7.96,-1.64,72,180.50,7.83,-3.77,50,172.20,14.94,-5.02,41,239.40,15.69,-6.44,29,203.90,8.80,-7.70,30,208.40,3.33,-7.85,18,0.10,0.10,0.27,0.29,0.48,0.47,0.90,0.33,0.43,0.27,0.68
9/1/2018 6:10 AM,98.50,8.16,0.08,99,101.20,8.96,0.09,98,100.80,8.68,0.17,96,107.40,7.86,0.23,95,87.40,7.84,0.13,90,67.90,9.49,0.72,57,74.10,11.43,0.91,57,60.10,13.06,1.30,34,355.80,8.08,1.07,13,55.60,7.76,0.02,8,263.70,16.40,0.51,21,0.08,0.06,0.09,0.35,0.39,0.32,0.39,0.76,0.82,0.90,1.39
9/1/2018 6:20 AM,92.00,8.60,0.14,99,93.30,8.53,0.22,97,91.60,8.69,0.19,96,89.90,8.02,0.20,93,83.00,8.84,0.26,90,72.10,9.23,0.15,85,336.90,8.40,0.63,36,2.90,6.42,1.42,36,234.40,0.77,0.24,42,341.60,11.24,0.04,23,338.20,13.98,-0.31,23,0.08,0.08,0.13,0.35,0.31,0.32,0.40,0.88,0.62,0.72,0.78
9/1/2018 6:30 AM,94.00,8.10,0.19,98,90.40,8.32,0.16,98,91.80,7.95,0.10,96,84.00,6.35,-0.05,93,92.20,5.83,-0.30,87,102.90,4.46,-1.03,82,4.80,11.18,-1.42,55,356.30,15.55,-1.08,45,292.40,13.23,-2.60,38,343.40,21.81,-2.76,36,330.70,17.05,-2.63,23,0.07,0.11,0.29,0.65,0.86,0.93,0.70,0.56,0.69,0.43,0.36
9/1/2018 6:40 AM,90.70,7.15,0.10,99,96.40,7.91,0.05,97,96.20,8.17,0.11,97,94.40,7.69,0.11,96,105.40,7.27,0.04,90,85.40,7.53,-0.62,78,271.90,1.73,-2.11,60,322.10,4.75,-4.01,47,353.00,13.08,-3.87,26,251.30,16.93,-4.19,23,5.00,16.10,-2.20,19,0.09,0.07,0.06,0.18,0.42,0.44,2.22,1.76,0.74,0.43,1.89
9/1/2018 6:50 AM,97.70,7.25,0.10,98,98.00,7.90,0.13,98,99.10,7.69,0.11,97,115.00,7.05,-0.07,95,109.40,6.88,-0.22,91,191.20,9.60,-1.87,89,125.30,7.61,-2.77,77,164.80,8.44,-3.46,66,33.40,2.73,-4.66,49,201.50,13.32,-4.21,48,77.40,3.86,-5.79,52,0.09,0.12,0.23,0.48,0.64,1.44,1.07,2.23,0.77,0.80,0.64
9/1/2018 7:00 AM,97.60,7.09,0.08,99,98.30,7.39,0.13,97,101.40,8.01,0.11,93,91.70,6.26,0.17,91,91.30,6.50,0.03,67,359.50,7.90,-0.28,55,319.40,9.30,-2.26,29,292.70,19.20,-2.83,13,275.10,27.79,-1.88,21,276.60,16.70,-1.61,26,225.70,7.51,-3.24,15,0.08,0.11,0.27,0.66,0.46,0.86,0.53,0.36,0.29,0.32,2.20
9/1/2018 7:10 AM,99.00,7.49,0.12,97,102.70,7.47,0.02,96,94.30,7.18,0.12,91,107.00,6.46,0.35,88,130.00,5.30,-0.42,53,46.90,4.08,-0.66,37,302.00,17.37,-1.56,15,294.40,14.57,-0.30,10,296.30,24.49,-0.73,9,298.50,12.35,-3.09,20,247.90,22.01,-0.85,8,0.08,0.18,0.33,0.60,0.48,2.04,1.63,0.65,0.62,1.62,0.70
9/1/2018 7:20 AM,95.90,7.25,0.08,99,99.10,6.75,0.03,95,110.10,8.32,-0.29,91,134.30,8.18,-0.60,87,108.00,9.32,-1.39,47,119.40,4.75,-3.31,32,157.90,13.27,-3.81,24,199.60,13.56,-5.95,41,190.40,12.32,-4.46,25,215.50,8.35,-4.33,26,222.20,26.63,-4.38,25,0.10,0.27,0.35,0.70,0.46,1.14,0.53,0.47,0.65,1.12,0.35
9/1/2018 7:30 AM,97.20,7.32,0.12,98,94.40,7.29,0.12,94,96.80,8.49,0.09,89,86.50,4.94,-0.50,82,20.80,6.73,-1.45,53,338.30,7.18,-1.90,34,313.80,13.40,-3.11,22,110.20,3.75,-2.52,17,344.70,20.02,-3.00,20,215.70,19.99,-3.08,29,233.40,3.11,-3.52,12,0.08,0.22,0.33,1.42,0.69,0.68,0.39,0.62,0.46,0.64,1.87
9/1/2018 7:40 AM,100.20,6.90,0.11,98,109.00,7.60,0.02,96,127.50,8.76,-0.23,90,162.40,11.68,-1.66,89,201.50,10.31,-3.73,79,162.00,10.59,-3.68,59,213.60,7.64,-5.12,50,199.00,2.62,-4.34,41,252.30,10.46,-5.28,39,266.20,6.04,-6.06,36,205.20,12.95,-4.62,43,0.13,0.24,0.39,0.66,1.02,1.55,0.71,1.09,2.24,6.39,0.76
9/1/2018 7:50 AM,109.50,7.66,-0.02,97,135.80,10.66,-0.42,96,156.60,16.60,-1.17,93,165.50,20.76,-2.01,92,178.10,17.97,-3.70,68,215.10,16.03,-5.65,41,242.50,10.38,-7.19,17,227.60,19.71,-5.34,4,206.80,0.48,-7.76,20,201.60,3.54,-7.66,17,198.20,15.02,-5.16,2,0.15,0.24,0.27,0.27,0.37,0.30,0.35,0.37,0.47,0.56,0.39
9/1/2018 8:00 AM,104.50,7.13,0.04,97,127.50,9.31,-0.23,95,150.50,10.12,-0.88,91,156.90,16.52,-1.88,88,163.40,15.06,-3.73,71,144.50,15.47,-4.96,40,171.60,7.28,-6.45,42,252.00,3.80,-7.81,45,249.60,8.95,-7.02,39,216.10,9.36,-6.10,30,263.00,4.79,-7.12,39,0.17,0.22,0.33,0.34,0.45,0.63,0.55,1.00,0.75,0.42,1.94
9/1/2018 8:10 AM,106.80,7.41,0.01,98,120.10,7.93,-0.09,96,129.50,9.80,-0.34,92,164.70,8.48,-1.40,88,209.10,19.73,-3.45,51,215.80,19.78,-4.27,45,241.60,22.18,-5.13,30,232.30,14.38,-5.54,24,238.20,29.81,-4.73,34,245.60,28.02,-3.74,17,228.50,15.73,-4.09,40,0.15,0.22,0.37,0.55,0.47,0.39,0.36,0.45,0.24,0.52,0.57
9/1/2018 8:20 AM,88.40,6.77,0.08,97,102.80,7.16,-0.10,95,118.00,8.26,-0.31,93,138.30,9.57,-0.90,89,200.50,12.50,-2.68,85,189.00,14.21,-2.27,66,233.00,15.47,-4.13,46,241.50,4.72,-3.45,58,232.70,17.19,-2.59,56,238.40,18.61,-3.57,50,214.90,13.91,-3.36,49,0.09,0.20,0.30,0.51,0.49,0.28,0.34,0.65,0.29,0.36,0.51
9/1/2018 8:30 AM,90.50,6.59,0.07,98,130.80,8.40,-0.47,95,148.10,9.16,-1.25,91,162.00,11.24,-1.90,89,181.60,13.24,-3.50,81,230.60,12.41,-5.05,52,220.70,13.88,-5.77,50,233.00,15.20,-7.00,55,239.90,17.72,-6.92,42,246.90,10.21,-7.01,45,227.00,13.17,-6.62,35,0.12,0.30,0.31,0.34,0.66,0.62,0.43,0.32,0.37,0.40,0.45
9/1/2018 8:40 AM,85.50,7.20,0.07,97,83.90,6.91,-0.23,92,140.10,9.79,-1.22,88,185.90,5.94,-3.36,64,224.80,8.41,-5.30,51,270.00,9.21,-6.28,49,230.90,11.79,-6.60,54,247.10,13.67,-7.67,29,239.20,10.43,-6.57,42,230.60,12.36,-6.54,37,242.10,11.16,-6.53,28,0.12,0.54,0.48,0.78,0.59,0.47,0.22,0.25,0.34,0.37,0.21
9/1/2018 8:50 AM,84.70,7.63,0.09,98,88.70,7.86,0.02,94,112.50,8.38,-0.23,89,71.60,5.19,-1.12,46,184.30,11.48,-4.50,21,178.40,9.49,-5.16,10,254.40,5.19,-6.32,14,252.80,15.99,-6.39,15,213.70,14.77,-6.22,18,212.00,16.42,-6.68,10,163.40,6.01,-6.51,15,0.13,0.33,0.38,0.59,0.42,0.31,0.49,0.31,0.37,0.20,0.38
9/1/2018 9:00 AM,82.50,7.97,0.13,97,85.10,7.69,-0.05,93,112.10,10.27,-0.97,77,113.40,8.10,-2.19,59,184.40,4.30,-3.98,30,271.00,9.83,-4.06,16,146.30,7.44,-4.32,23,21.40,2.02,-5.70,19,93.90,1.09,-4.67,20,122.30,6.19,-4.04,25,165.90,5.17,-3.79,25,0.14,0.30,0.30,0.40,0.46,0.64,0.46,1.33,0.68,0.79,0.34
9/1/2018 9:10 AM,89.30,8.14,0.12,98,95.80,9.21,-0.21,92,98.40,11.61,-0.73,79,116.20,7.92,-3.82,62,118.00,4.65,-5.31,25,283.70,3.75,-6.86,23,137.80,8.66,-6.11,31,154.10,6.68,-6.05,43,142.70,13.03,-6.15,14,216.30,1.91,-6.83,18,132.80,6.96,-5.53,20,0.14,0.25,0.29,0.45,1.74,10.97,0.40,0.76,0.32,1.71,0.35
9/1/2018 9:20 AM,78.20,7.77,0.20,99,78.10,6.85,0.13,94,74.30,5.67,-0.47,88,40.20,6.95,-1.63,45,219.90,5.76,-5.61,14,323.40,5.72,-6.95,5,253.30,7.22,-7.87,14,301.20,3.15,-6.94,3,322.40,16.20,-6.23,4,241.00,5.94,-7.28,9,312.30,7.25,-7.14,7,0.10,0.38,1.18,1.17,2.21,0.76,0.35,0.48,0.27,0.45,0.28
9/1/2018 9:30 AM,84.70,7.24,0.15,98,83.70,6.91,0.19,93,81.10,6.82,0.18,75,100.80,6.22,0.08,21,231.70,15.37,-4.86,7,164.30,9.68,-4.90,2,291.30,2.89,-7.15,0,178.60,15.08,-5.67,3,136.10,14.98,-4.95,2,236.10,10.49,-7.63,5,222.60,5.50,-6.89,4,0.07,0.25,0.27,0.27,0.47,0.41,0.55,0.23,0.20,0.40,0.26
9/1/2018 9:40 AM,90.60,7.22,0.06,97,113.70,7.56,-0.25,89,194.50,5.10,-1.89,56,200.80,18.92,-4.48,34,225.00,16.06,-7.15,8,226.30,19.34,-6.25,12,222.20,16.97,-7.25,15,239.30,9.46,-8.33,12,245.80,10.49,-7.04,11,216.00,8.03,-7.13,9,216.30,12.56,-7.30,7,0.23,0.33,0.78,0.46,0.29,0.18,0.13,0.45,0.53,0.48,0.24
9/1/2018 9:50 AM,84.60,6.65,0.14,97,80.60,4.05,-0.22,91,164.80,1.85,-1.19,79,284.80,5.90,-3.87,38,227.00,8.19,-6.40,33,221.80,8.18,-7.73,14,217.20,8.43,-8.29,4,128.50,4.97,-8.23,17,153.80,6.45,-8.55,8,256.70,1.86,-8.50,10,136.90,4.61,-8.81,14,0.09,1.10,1.50,1.25,1.64,1.67,0.18,0.50,0.30,2.11,0.34
9/1/2018 10:00 AM,75.60,6.56,0.10,93,104.50,6.18,-0.30,87,145.80,0.43,-1.79,41,149.70,10.70,-3.03,25,285.10,20.57,-5.66,5,235.10,8.66,-7.46,4,217.00,9.10,-7.01,6,207.20,14.51,-7.00,10,219.10,7.07,-7.95,5,258.50,6.31,-7.77,8,196.80,7.86,-7.56,5,0.18,0.36,0.67,0.86,0.19,0.71,0.24,0.15,0.23,0.38,0.25
9/1/2018 10:10 AM,73.40,5.93,-0.05,96,74.90,4.93,-0.49,90,137.00,5.12,-1.77,45,170.30,7.53,-4.54,38,205.20,5.91,-7.38,22,206.30,4.35,-8.13,25,213.60,5.41,-7.76,18,217.60,6.66,-7.76,25,239.70,5.38,-7.79,12,213.90,5.11,-7.80,29,216.70,5.14,-7.89,19,0.30,0.60,0.78,0.87,0.47,0.35,0.34,0.20,0.32,0.17,0.16
9/1/2018 10:20 AM,82.80,6.11,0.13,96,78.90,5.78,-0.14,89,69.60,4.36,-1.87,38,334.10,10.81,-4.48,12,25.00,10.73,-5.29,24,300.80,5.22,-6.16,16,241.60,4.57,-6.43,16,56.00,7.26,-7.26,8,238.20,3.89,-6.67,18,350.00,9.76,-6.35,19,327.00,4.40,-6.92,10,0.28,0.93,0.84,0.48,0.31,0.46,0.83,0.87,0.35,0.29,0.57
9/1/2018 10:30 AM,76.70,5.58,-0.16,96,345.80,3.58,-1.12,87,248.10,9.34,-3.52,55,303.00,15.26,-4.40,28,251.20,10.69,-6.22,12,242.00,11.62,-6.34,8,251.10,7.14,-6.29,6,315.30,4.93,-6.62,12,248.60,11.50,-6.06,26,242.50,4.75,-6.96,13,268.60,10.77,-6.00,10,0.43,1.04,0.49,0.46,0.27,0.28,0.36,0.22,0.30,0.32,0.22
9/1/2018 10:40 AM,98.80,6.84,-0.05,97,121.60,8.10,-0.34,91,149.00,12.61,-1.02,86,184.40,14.25,-2.70,62,221.40,18.72,-5.24,35,204.80,10.27,-6.24,26,191.00,10.94,-6.43,4,223.00,8.85,-6.87,4,269.90,4.95,-8.16,5,234.40,7.42,-7.52,4,234.70,19.84,-5.83,15,0.28,0.25,0.27,0.25,0.25,0.33,0.27,0.24,0.58,0.52,0.36
9/1/2018 10:50 AM,73.70,7.77,0.23,98,78.70,8.36,0.25,96,76.40,8.24,0.28,90,72.30,7.62,-0.09,76,66.30,2.69,-0.64,60,105.10,8.76,-0.33,41,155.90,8.97,-2.82,22,250.90,16.00,-5.40,13,146.90,15.93,-5.27,20,112.00,30.57,-1.97,23,86.60,16.57,-5.49,17,0.08,0.09,0.18,0.48,0.82,0.75,0.47,0.38,0.34,0.26,0.24
9/1/2018 11:00 AM,73.50,7.91,0.07,97,92.90,8.15,-0.13,97,113.40,8.69,-0.37,95,112.00,8.37,-0.45,94,135.40,7.08,-1.34,89,154.20,10.58,-2.44,85,245.00,8.39,-4.17,65,281.10,7.78,-6.34,29,238.50,20.95,-5.79,48,194.60,8.80,-5.41,34,230.10,18.00,-5.01,36,0.07,0.19,0.27,0.34,0.96,1.60,0.89,1.15,0.31,0.96,0.55
9/1/2018 11:10 AM,74.20,7.74,0.19,98,74.90,8.20,0.17,98,77.40,8.09,0.19,97,73.10,8.38,0.15,95,102.90,8.17,-0.30,91,105.10,7.80,-0.37,86,157.40,8.19,-1.73,40,231.00,5.91,-3.55,27,177.00,7.82,-4.03,33,182.20,11.14,-5.24,22,209.10,7.44,-5.89,16,0.07,0.09,0.17,0.18,0.39,0.94,0.45,0.47,0.42,0.35,0.39
9/1/2018 11:20 AM,74.30,7.19,0.13,98,76.90,8.10,0.17,99,77.90,8.02,0.15,98,71.10,8.41,0.24,97,76.40,8.33,0.11,94,81.40,7.02,-0.15,91,98.70,9.53,-0.56,86,126.10,4.99,-1.50,63,160.30,13.01,-2.68,34,155.90,10.35,-3.84,45,208.00,6.88,-5.91,40,0.08,0.09,0.15,0.13,0.19,0.48,0.47,0.63,0.50,0.33,0.54
9/1/2018 11:30 AM,68.80,7.65,0.12,97,67.00,8.88,0.21,98,75.00,8.76,0.20,97,71.00,8.01,0.08,94,67.20,11.57,-0.49,89,357.80,4.66,-0.61,76,39.90,10.62,-1.95,65,75.00,11.37,-0.02,52,247.80,11.23,-2.29,42,26.30,4.80,-3.19,37,353.20,1.35,-0.72,43,0.11,0.11,0.17,0.29,0.37,2.96,1.27,0.53,1.57,2.91,3.42
9/1/2018 11:40 AM,75.40,6.81,0.16,99,72.50,7.88,0.12,99,75.30,8.15,0.12,97,75.90,7.92,0.01,97,104.60,8.75,-0.21,92,89.30,6.25,-0.75,89,100.70,3.38,-1.14,64,232.80,1.79,-2.95,45,133.70,18.70,-3.18,41,329.70,7.14,-4.61,34,23.40,7.65,-5.81,30,0.14,0.08,0.16,0.31,0.33,0.70,2.72,2.13,0.47,2.52,2.78
9/1/2018 11:50 AM,71.40,7.29,0.11,98,68.60,7.43,0.07,99,63.80,7.78,0.04,98,71.90,8.04,0.04,97,76.50,7.35,-0.22,94,72.00,5.68,-0.97,89,106.80,4.42,-1.52,63,322.10,6.28,-2.62,44,41.00,6.33,-3.96,28,227.30,6.58,-6.61,27,127.20,2.70,-6.00,19,0.10,0.12,0.16,0.20,0.33,0.51,0.61,1.83,0.97,0.79,2.33
9/1/2018 12:00 PM,76.20,7.11,0.15,98,73.60,7.57,0.10,99,77.40,7.92,0.07,98,70.60,8.73,-0.01,97,72.40,8.04,-0.47,93,93.00,6.60,-1.15,90,118.70,7.41,-1.03,85,255.50,3.97,-4.18,87,13.80,3.86,-3.56,74,2.80,8.15,-5.44,64,73.90,6.21,-5.03,55,0.09,0.08,0.17,0.24,0.50,0.70,0.83,2.58,3.79,2.12,1.16
9/1/2018 12:10 PM,76.20,8.04,0.01,99,76.70,8.67,0.03,98,79.60,8.59,0.04,99,80.00,8.55,-0.04,97,67.80,7.42,-0.26,94,41.10,5.52,-0.65,92,91.60,5.92,-0.83,89,227.10,2.98,-2.24,87,34.40,3.47,-2.66,64,55.90,3.95,-3.07,59,113.30,4.24,-4.53,36,0.07,0.09,0.13,0.23,0.35,0.63,0.56,2.16,0.98,1.01,0.63
9/1/2018 12:20 PM,69.50,8.36,0.09,98,75.10,8.90,0.03,99,71.40,8.42,-0.01,99,69.00,8.86,-0.01,98,75.50,7.15,-0.32,96,65.20,7.83,-0.67,93,44.10,7.42,-1.80,88,20.20,2.90,-2.60,77,211.40,7.44,-3.91,61,318.20,4.03,-5.41,44,36.90,6.36,-7.23,53,0.07,0.09,0.20,0.18,0.35,0.47,0.72,1.04,0.70,1.94,1.09
9/1/2018 12:30 PM,76.70,8.46,0.22,99,74.40,8.78,0.17,99,77.70,8.58,0.24,99,81.70,8.74,0.28,98,80.00,8.28,0.18,96,92.40,7.56,-0.16,90,92.20,9.08,-0.25,88,156.60,10.38,-0.95,66,174.90,5.93,-2.61,45,176.10,7.69,-3.45,44,205.00,3.61,-2.13,37,0.07,0.06,0.11,0.14,0.22,0.39,0.61,0.71,0.64,0.71,0.91
9/1/2018 12:40 PM,81.40,8.99,0.14,98,81.50,8.81,0.15,99,76.40,7.82,-0.14,97,77.90,7.48,-0.08,95,78.70,5.28,-0.88,92,35.40,3.25,-1.42,82,170.00,4.24,-2.58,53,197.70,7.32,-2.89,40,223.80,19.40,-4.06,43,236.70,8.58,-5.55,44,248.70,15.36,-6.00,22,0.07,0.09,0.30,0.34,0.74,1.20,0.93,0.77,0.38,0.48,0.29